Time,TemperatureF,DewpointF,PressureIn,WindDirection,WindDirectionDegrees,WindSpeedMPH,WindSpeedGustMPH,Humidity,HourlyPrecipIn,Conditions,Clouds,dailyrainin,SoftwareType,DateUTC
2013-01-10 00:00:00,35.6,30.4,30.00,WSW,256,14.0,14.0,81,0.00,,---,0.00,VWS V14.00,2013-01-10 05:00:00,
2013-01-10 00:03:00,35.5,30.6,30.00,West,263,3.0,14.0,82,0.00,,---,0.00,VWS V14.00,2013-01-10 05:03:00,
2013-01-10 00:08:00,35.2,30.6,30.01,SSW,204,8.0,14.0,83,0.00,,---,0.00,VWS V14.00,2013-01-10 05:08:00,
2013-01-10 00:13:00,35.1,30.8,30.02,WSW,238,4.0,14.0,84,0.00,,---,0.00,VWS V14.00,2013-01-10 05:13:00,
2013-01-10 00:18:00,35.0,30.7,30.02,WSW,246,9.0,14.0,84,0.00,,---,0.00,VWS V14.00,2013-01-10 05:18:00,
2013-01-10 00:23:00,34.8,30.8,30.03,WNW,300,2.0,14.0,85,0.00,,---,0.00,VWS V14.00,2013-01-10 05:23:00,
2013-01-10 00:28:00,34.7,30.7,30.03,West,259,4.0,17.0,85,0.00,,---,0.00,VWS V14.00,2013-01-10 05:28:00,
2013-01-10 00:30:00,18.5,15.8,30.33,South,172,0.0,3.0,89,0.00,,---,0.00,VWS V14.00,2013-01-10 05:30:00,
2013-01-10 00:33:00,34.7,30.4,30.04,WNW,301,0.0,17.0,84,0.00,,---,0.00,VWS V14.00,2013-01-10 05:33:00,
2013-01-10 00:38:00,34.7,30.1,30.05,WNW,300,2.0,17.0,83,0.00,,---,0.00,VWS V14.00,2013-01-10 05:38:00,
2013-01-10 00:43:00,34.8,29.9,30.05,WNW,284,3.0,17.0,82,0.00,,---,0.00,VWS V14.00,2013-01-10 05:43:00,
2013-01-10 00:48:00,34.8,29.9,30.06,NNW,348,13.0,13.0,82,0.00,,---,0.00,VWS V14.00,2013-01-10 05:48:00,
2013-01-10 00:53:00,34.8,29.9,30.06,SSE,147,6.0,21.0,82,0.00,,---,0.00,VWS V14.00,2013-01-10 05:53:00,
2013-01-10 00:58:00,34.7,29.5,30.06,NNW,332,1.0,21.0,81,0.00,,---,0.00,VWS V14.00,2013-01-10 05:58:00,
2013-01-10 01:00:00,18.7,16.3,30.33,South,172,0.0,2.0,90,0.00,,---,0.00,VWS V14.00,2013-01-10 06:00:00,
2013-01-10 01:03:00,34.7,29.5,30.07,WNW,292,0.0,21.0,81,0.00,,---,0.00,VWS V14.00,2013-01-10 06:03:00,
2013-01-10 01:08:00,34.7,29.2,30.07,ENE,59,2.0,21.0,80,0.00,,---,0.00,VWS V14.00,2013-01-10 06:08:00,
2013-01-10 01:13:00,34.7,28.9,30.07,NW,321,5.0,21.0,79,0.00,,---,0.00,VWS V14.00,2013-01-10 06:13:00,
2013-01-10 01:18:00,35.0,27.9,30.08,NW,308,11.0,14.0,75,0.00,,---,0.00,VWS V14.00,2013-01-10 06:18:00,
2013-01-10 01:23:00,35.3,27.5,30.08,WNW,290,9.0,17.0,73,0.00,,---,0.00,VWS V14.00,2013-01-10 06:23:00,
2013-01-10 01:28:00,35.4,27.3,30.08,West,271,4.0,17.0,72,0.00,,---,0.00,VWS V14.00,2013-01-10 06:28:00,
2013-01-10 01:30:00,18.2,15.8,30.32,South,172,0.0,2.0,90,0.00,,---,0.00,VWS V14.00,2013-01-10 06:30:00,
2013-01-10 01:33:00,35.5,26.7,30.09,NW,306,15.0,17.0,70,0.00,,---,0.00,VWS V14.00,2013-01-10 06:33:00,
2013-01-10 01:38:00,35.7,26.5,30.09,NW,306,9.0,17.0,69,0.00,,---,0.00,VWS V14.00,2013-01-10 06:38:00,
2013-01-10 01:43:00,35.7,26.5,30.09,WSW,255,3.0,19.0,69,0.00,,---,0.00,VWS V14.00,2013-01-10 06:43:00,
2013-01-10 01:48:00,35.7,26.2,30.10,WSW,244,2.0,16.0,68,0.00,,---,0.00,VWS V14.00,2013-01-10 06:48:00,
2013-01-10 01:53:00,35.8,26.3,30.11,WNW,283,4.0,22.0,68,0.00,,---,0.00,VWS V14.00,2013-01-10 06:53:00,
2013-01-10 01:58:00,35.8,26.6,30.11,WNW,285,10.0,22.0,69,0.00,,---,0.00,VWS V14.00,2013-01-10 06:58:00,
2013-01-10 02:00:00,17.0,14.3,30.31,South,172,0.0,2.0,89,0.00,,---,0.00,VWS V14.00,2013-01-10 07:00:00,
2013-01-10 02:03:00,35.7,26.5,30.11,WSW,253,3.0,22.0,69,0.00,,---,0.00,VWS V14.00,2013-01-10 07:03:00,
2013-01-10 02:08:00,35.6,26.5,30.12,NW,313,13.0,22.0,69,0.00,,---,0.00,VWS V14.00,2013-01-10 07:08:00,
2013-01-10 02:13:00,35.6,26.5,30.12,WSW,243,6.0,22.0,69,0.00,,---,0.00,VWS V14.00,2013-01-10 07:13:00,
2013-01-10 02:18:00,35.5,26.4,30.13,NW,306,4.0,18.0,69,0.00,,---,0.00,VWS V14.00,2013-01-10 07:18:00,
2013-01-10 02:23:00,35.4,26.6,30.13,West,261,3.0,18.0,70,0.00,,---,0.00,VWS V14.00,2013-01-10 07:23:00,
2013-01-10 02:28:00,35.3,26.5,30.13,West,264,0.0,20.0,70,0.00,,---,0.00,VWS V14.00,2013-01-10 07:28:00,
2013-01-10 02:30:00,17.5,15.1,30.31,South,172,1.0,3.0,90,0.00,,---,0.00,VWS V14.00,2013-01-10 07:30:00,
2013-01-10 02:33:00,35.2,26.4,30.14,NW,313,9.0,20.0,70,0.00,,---,0.00,VWS V14.00,2013-01-10 07:33:00,
2013-01-10 02:38:00,35.2,26.4,30.14,West,265,11.0,20.0,70,0.00,,---,0.00,VWS V14.00,2013-01-10 07:38:00,
2013-01-10 02:43:00,35.2,26.4,30.14,WNW,289,2.0,20.0,70,0.00,,---,0.00,VWS V14.00,2013-01-10 07:43:00,
2013-01-10 02:48:00,35.2,26.1,30.14,NW,308,11.0,21.0,69,0.00,,---,0.00,VWS V14.00,2013-01-10 07:48:00,
2013-01-10 02:53:00,35.2,25.7,30.15,WNW,297,14.0,21.0,68,0.00,,---,0.00,VWS V14.00,2013-01-10 07:53:00,
2013-01-10 02:58:00,35.2,25.7,30.15,WNW,299,5.0,21.0,68,0.00,,---,0.00,VWS V14.00,2013-01-10 07:58:00,
2013-01-10 03:00:00,17.5,15.1,30.31,South,172,0.0,3.0,90,0.00,,---,0.00,VWS V14.00,2013-01-10 08:00:00,
2013-01-10 03:03:00,35.1,25.3,30.16,NW,308,12.0,21.0,67,0.00,,---,0.00,VWS V14.00,2013-01-10 08:03:00,
2013-01-10 03:08:00,35.3,25.1,30.16,NW,304,7.0,21.0,66,0.00,,---,0.00,VWS V14.00,2013-01-10 08:08:00,
2013-01-10 03:13:00,35.2,25.0,30.17,West,279,6.0,21.0,66,0.00,,---,0.00,VWS V14.00,2013-01-10 08:13:00,
2013-01-10 03:18:00,35.2,25.4,30.17,SSW,210,1.0,15.0,67,0.00,,---,0.00,VWS V14.00,2013-01-10 08:18:00,
2013-01-10 03:23:00,35.1,25.3,30.17,NW,315,6.0,22.0,67,0.00,,---,0.00,VWS V14.00,2013-01-10 08:23:00,
2013-01-10 03:28:00,35.1,25.3,30.18,WNW,290,19.0,22.0,67,0.00,,---,0.00,VWS V14.00,2013-01-10 08:28:00,
2013-01-10 03:30:00,17.4,15.0,30.31,South,172,1.0,3.0,90,0.00,,---,0.00,VWS V14.00,2013-01-10 08:30:00,
2013-01-10 03:33:00,35.0,24.8,30.18,WNW,298,12.0,22.0,66,0.00,,---,0.00,VWS V14.00,2013-01-10 08:33:00,
2013-01-10 03:38:00,35.0,24.4,30.18,NW,315,13.0,22.0,65,0.00,,---,0.00,VWS V14.00,2013-01-10 08:38:00,
2013-01-10 03:43:00,34.9,24.7,30.19,WNW,288,11.0,22.0,66,0.00,,---,0.00,VWS V14.00,2013-01-10 08:43:00,
2013-01-10 03:48:00,34.8,24.6,30.19,NW,315,6.0,20.0,66,0.00,,---,0.00,VWS V14.00,2013-01-10 08:48:00,
2013-01-10 03:53:00,34.7,24.5,30.19,WNW,293,4.0,20.0,66,0.00,,---,0.00,VWS V14.00,2013-01-10 08:53:00,
2013-01-10 03:58:00,34.6,24.4,30.20,NW,312,11.0,22.0,66,0.00,,---,0.00,VWS V14.00,2013-01-10 08:58:00,
2013-01-10 04:00:00,16.6,13.9,30.31,South,172,0.0,3.0,89,0.00,,---,0.00,VWS V14.00,2013-01-10 09:00:00,
2013-01-10 04:03:00,34.6,24.4,30.20,NNW,344,3.0,22.0,66,0.00,,---,0.00,VWS V14.00,2013-01-10 09:03:00,
2013-01-10 04:08:00,34.4,24.6,30.20,NW,316,3.0,22.0,67,0.00,,---,0.00,VWS V14.00,2013-01-10 09:08:00,
2013-01-10 04:13:00,34.4,24.6,30.21,West,266,3.0,22.0,67,0.00,,---,0.00,VWS V14.00,2013-01-10 09:13:00,
2013-01-10 04:18:00,34.3,24.5,30.21,WNW,294,7.0,14.0,67,0.00,,---,0.00,VWS V14.00,2013-01-10 09:18:00,
2013-01-10 04:23:00,34.2,24.4,30.21,WNW,302,11.0,22.0,67,0.00,,---,0.00,VWS V14.00,2013-01-10 09:23:00,
2013-01-10 04:28:00,34.2,24.4,30.21,NNW,344,7.0,22.0,67,0.00,,---,0.00,VWS V14.00,2013-01-10 09:28:00,
2013-01-10 04:30:00,15.5,12.8,30.32,South,172,0.0,2.0,89,0.00,,---,0.00,VWS V14.00,2013-01-10 09:30:00,
2013-01-10 04:33:00,34.1,24.3,30.22,NW,305,8.0,22.0,67,0.00,,---,0.00,VWS V14.00,2013-01-10 09:33:00,
2013-01-10 04:38:00,34.1,24.3,30.22,WNW,294,2.0,22.0,67,0.00,,---,0.00,VWS V14.00,2013-01-10 09:38:00,
2013-01-10 04:43:00,34.0,24.2,30.22,NW,311,4.0,22.0,67,0.00,,---,0.00,VWS V14.00,2013-01-10 09:43:00,
2013-01-10 04:49:00,34.0,24.2,30.23,WNW,286,9.0,15.0,67,0.00,,---,0.00,VWS V14.00,2013-01-10 09:49:00,
2013-01-10 04:54:00,34.0,23.9,30.23,WNW,299,13.0,16.0,66,0.00,,---,0.00,VWS V14.00,2013-01-10 09:54:00,
2013-01-10 04:59:00,34.0,23.9,30.23,West,276,5.0,16.0,66,0.00,,---,0.00,VWS V14.00,2013-01-10 09:59:00,
2013-01-10 05:00:00,15.1,12.4,30.31,South,172,0.0,2.0,89,0.00,,---,0.00,VWS V14.00,2013-01-10 10:00:00,
2013-01-10 05:04:00,33.9,24.1,30.23,NW,326,8.0,16.0,67,0.00,,---,0.00,VWS V14.00,2013-01-10 10:04:00,
2013-01-10 05:09:00,33.8,23.7,30.23,WNW,303,12.0,16.0,66,0.00,,---,0.00,VWS V14.00,2013-01-10 10:09:00,
2013-01-10 05:14:00,33.8,23.7,30.24,WNW,297,0.0,16.0,66,0.00,,---,0.00,VWS V14.00,2013-01-10 10:14:00,
2013-01-10 05:19:00,33.8,23.7,30.24,WNW,300,6.0,9.0,66,0.00,,---,0.00,VWS V14.00,2013-01-10 10:19:00,
2013-01-10 05:24:00,33.7,23.6,30.24,NW,308,8.0,12.0,66,0.00,,---,0.00,VWS V14.00,2013-01-10 10:24:00,
2013-01-10 05:29:00,33.5,23.4,30.24,NW,309,2.0,15.0,66,0.00,,---,0.00,VWS V14.00,2013-01-10 10:29:00,
2013-01-10 05:30:00,14.9,12.2,30.30,South,172,0.0,2.0,89,0.00,,---,0.00,VWS V14.00,2013-01-10 10:30:00,
2013-01-10 05:34:00,33.4,23.3,30.23,NW,324,4.0,15.0,66,0.00,,---,0.00,VWS V14.00,2013-01-10 10:34:00,
2013-01-10 05:39:00,33.1,23.0,30.23,WNW,294,4.0,15.0,66,0.00,,---,0.00,VWS V14.00,2013-01-10 10:39:00,
2013-01-10 05:44:00,32.9,22.8,30.24,NW,310,6.0,15.0,66,0.00,,---,0.00,VWS V14.00,2013-01-10 10:44:00,
2013-01-10 05:49:00,32.6,22.9,30.24,NNW,339,6.0,7.0,67,0.00,,---,0.00,VWS V14.00,2013-01-10 10:49:00,
2013-01-10 05:54:00,32.5,22.8,30.24,NW,322,4.0,14.0,67,0.00,,---,0.00,VWS V14.00,2013-01-10 10:54:00,
2013-01-10 05:59:00,32.5,22.8,30.25,West,273,7.0,14.0,67,0.00,,---,0.00,VWS V14.00,2013-01-10 10:59:00,
2013-01-10 06:00:00,15.1,12.4,30.31,South,172,0.0,2.0,89,0.00,,---,0.00,VWS V14.00,2013-01-10 11:00:00,
2013-01-10 06:04:00,32.5,22.8,30.25,NW,311,3.0,19.0,67,0.00,,---,0.00,VWS V14.00,2013-01-10 11:04:00,
2013-01-10 06:09:00,32.5,22.8,30.25,NW,304,9.0,19.0,67,0.00,,---,0.00,VWS V14.00,2013-01-10 11:09:00,
2013-01-10 06:14:00,32.4,22.7,30.26,NW,311,8.0,19.0,67,0.00,,---,0.00,VWS V14.00,2013-01-10 11:14:00,
2013-01-10 06:19:00,32.3,22.9,30.25,NW,306,7.0,10.0,68,0.00,,---,0.00,VWS V14.00,2013-01-10 11:19:00,
2013-01-10 06:24:00,32.2,22.8,30.26,WNW,287,7.0,13.0,68,0.00,,---,0.00,VWS V14.00,2013-01-10 11:24:00,
2013-01-10 06:29:00,32.1,22.8,30.26,WNW,298,2.0,13.0,68,0.00,,---,0.00,VWS V14.00,2013-01-10 11:29:00,
2013-01-10 06:30:00,17.3,14.9,30.29,South,172,0.0,3.0,90,0.00,,---,0.00,VWS V14.00,2013-01-10 11:30:00,
2013-01-10 06:34:00,32.0,22.6,30.26,NW,308,6.0,13.0,68,0.00,,---,0.00,VWS V14.00,2013-01-10 11:34:00,
2013-01-10 06:39:00,31.9,22.9,30.26,NW,317,2.0,13.0,69,0.00,,---,0.00,VWS V14.00,2013-01-10 11:39:00,
2013-01-10 06:44:00,31.9,22.9,30.27,WNW,292,2.0,13.0,69,0.00,,---,0.00,VWS V14.00,2013-01-10 11:44:00,
2013-01-10 06:49:00,31.8,22.8,30.27,West,279,3.0,4.0,69,0.00,,---,0.00,VWS V14.00,2013-01-10 11:49:00,
2013-01-10 06:54:00,31.6,22.6,30.28,WNW,292,2.0,9.0,69,0.00,,---,0.00,VWS V14.00,2013-01-10 11:54:00,
2013-01-10 06:59:00,31.4,22.8,30.28,NW,306,5.0,9.0,70,0.00,,---,0.00,VWS V14.00,2013-01-10 11:59:00,
2013-01-10 07:00:00,21.2,19.0,30.26,South,172,1.0,3.0,91,0.00,,---,0.00,VWS V14.00,2013-01-10 12:00:00,
2013-01-10 07:04:00,31.4,22.8,30.29,NW,308,9.0,11.0,70,0.00,,---,0.00,VWS V14.00,2013-01-10 12:04:00,
2013-01-10 07:09:00,31.4,22.8,30.29,NW,324,2.0,11.0,70,0.00,,---,0.00,VWS V14.00,2013-01-10 12:09:00,
2013-01-10 07:14:00,31.5,22.9,30.30,West,261,0.0,14.0,70,0.00,,---,0.00,VWS V14.00,2013-01-10 12:14:00,
2013-01-10 07:19:00,31.4,23.1,30.30,WNW,287,9.0,11.0,71,0.00,,---,0.00,VWS V14.00,2013-01-10 12:19:00,
2013-01-10 07:24:00,31.4,23.1,30.31,NW,319,3.0,11.0,71,0.00,,---,0.00,VWS V14.00,2013-01-10 12:24:00,
2013-01-10 07:29:00,31.4,23.1,30.31,NW,320,9.0,13.0,71,0.00,,---,0.00,VWS V14.00,2013-01-10 12:29:00,
2013-01-10 07:30:00,25.2,23.0,30.28,SE,135,0.0,4.0,91,0.00,,---,0.00,VWS V14.00,2013-01-10 12:30:00,
2013-01-10 07:34:00,31.3,23.0,30.31,NNW,340,9.0,13.0,71,0.00,,---,0.00,VWS V14.00,2013-01-10 12:34:00,
2013-01-10 07:39:00,31.3,23.0,30.31,NW,322,7.0,13.0,71,0.00,,---,0.00,VWS V14.00,2013-01-10 12:39:00,
2013-01-10 07:44:00,31.3,23.3,30.32,West,267,5.0,13.0,72,0.00,,---,0.00,VWS V14.00,2013-01-10 12:44:00,
2013-01-10 07:49:00,31.4,23.1,30.32,WNW,299,9.0,12.0,71,0.00,,---,0.00,VWS V14.00,2013-01-10 12:49:00,
2013-01-10 07:54:00,31.5,23.2,30.32,NNW,327,4.0,14.0,71,0.00,,---,0.00,VWS V14.00,2013-01-10 12:54:00,
2013-01-10 07:59:00,31.5,23.2,30.33,WNW,288,8.0,14.0,71,0.00,,---,0.00,VWS V14.00,2013-01-10 12:59:00,
2013-01-10 08:00:00,34.8,25.3,30.25,SSE,159,1.0,10.0,68,0.00,,---,0.00,VWS V14.00,2013-01-10 13:00:00,
2013-01-10 08:04:00,31.6,23.3,30.34,WNW,291,5.0,14.0,71,0.00,,---,0.00,VWS V14.00,2013-01-10 13:04:00,
2013-01-10 08:09:00,31.6,23.3,30.33,NW,315,1.0,14.0,71,0.00,,---,0.00,VWS V14.00,2013-01-10 13:09:00,
2013-01-10 08:14:00,31.4,23.4,30.34,NW,325,6.0,14.0,72,0.00,,---,0.00,VWS V14.00,2013-01-10 13:14:00,
2013-01-10 08:19:00,31.5,23.5,30.34,WNW,284,9.0,11.0,72,0.00,,---,0.00,VWS V14.00,2013-01-10 13:19:00,
2013-01-10 08:24:00,31.7,23.7,30.34,NW,309,4.0,11.0,72,0.00,,---,0.00,VWS V14.00,2013-01-10 13:24:00,
2013-01-10 08:29:00,31.7,23.4,30.34,WNW,298,3.0,11.0,71,0.00,,---,0.00,VWS V14.00,2013-01-10 13:29:00,
2013-01-10 08:30:00,36.2,24.1,30.19,South,169,3.0,8.0,61,0.00,,---,0.00,VWS V14.00,2013-01-10 13:30:00,
2013-01-10 08:34:00,31.8,23.5,30.34,SW,235,0.0,11.0,71,0.00,,---,0.00,VWS V14.00,2013-01-10 13:34:00,
2013-01-10 08:39:00,31.9,23.6,30.35,WNW,290,0.0,11.0,71,0.00,,---,0.00,VWS V14.00,2013-01-10 13:39:00,
2013-01-10 08:44:00,32.0,23.7,30.35,WNW,300,1.0,11.0,71,0.00,,---,0.00,VWS V14.00,2013-01-10 13:44:00,
2013-01-10 08:49:00,32.1,23.8,30.35,WNW,294,5.0,10.0,71,0.00,,---,0.00,VWS V14.00,2013-01-10 13:49:00,
2013-01-10 08:54:00,32.3,24.0,30.36,WNW,296,8.0,10.0,71,0.00,,---,0.00,VWS V14.00,2013-01-10 13:54:00,
2013-01-10 08:59:00,32.3,24.0,30.36,NW,308,1.0,10.0,71,0.00,,---,0.00,VWS V14.00,2013-01-10 13:59:00,
2013-01-10 09:00:00,38.0,22.4,30.17,SSE,162,3.0,10.0,53,0.00,,---,0.00,VWS V14.00,2013-01-10 14:00:00,
2013-01-10 09:05:00,32.5,23.8,30.36,NW,319,8.0,13.0,70,0.00,,---,0.00,VWS V14.00,2013-01-10 14:05:00,
2013-01-10 09:10:00,32.6,23.9,30.36,West,277,0.0,13.0,70,0.00,,---,0.00,VWS V14.00,2013-01-10 14:10:00,
2013-01-10 09:15:00,32.8,24.1,30.37,WNW,293,6.0,13.0,70,0.00,,---,0.00,VWS V14.00,2013-01-10 14:15:00,
2013-01-10 09:20:00,32.9,23.9,30.37,WNW,300,11.0,11.0,69,0.00,,---,0.00,VWS V14.00,2013-01-10 14:20:00,
2013-01-10 09:25:00,33.2,24.1,30.37,WNW,300,5.0,12.0,69,0.00,,---,0.00,VWS V14.00,2013-01-10 14:25:00,
2013-01-10 09:30:00,33.2,24.1,30.37,West,261,1.0,12.0,69,0.00,,---,0.00,VWS V14.00,2013-01-10 14:30:00,
2013-01-10 09:35:00,33.2,24.1,30.38,WNW,299,6.0,12.0,69,0.00,,---,0.00,VWS V14.00,2013-01-10 14:35:00,
2013-01-10 09:40:00,33.2,24.1,30.38,West,273,10.0,15.0,69,0.00,,---,0.00,VWS V14.00,2013-01-10 14:40:00,
2013-01-10 09:45:00,33.1,24.0,30.39,West,277,11.0,16.0,69,0.00,,---,0.00,VWS V14.00,2013-01-10 14:45:00,
2013-01-10 09:50:00,33.2,24.1,30.39,WNW,285,10.0,16.0,69,0.00,,---,0.00,VWS V14.00,2013-01-10 14:50:00,
2013-01-10 09:55:00,33.3,23.9,30.39,NW,319,2.0,19.0,68,0.00,,---,0.00,VWS V14.00,2013-01-10 14:55:00,
2013-01-10 10:00:00,33.4,24.3,30.39,NW,311,9.0,19.0,69,0.00,,---,0.00,VWS V14.00,2013-01-10 15:00:00,
2013-01-10 10:05:00,33.4,24.3,30.39,NW,311,8.0,19.0,69,0.00,,---,0.00,VWS V14.00,2013-01-10 15:05:00,
2013-01-10 10:10:00,33.5,24.4,30.39,WNW,302,10.0,19.0,69,0.00,,---,0.00,VWS V14.00,2013-01-10 15:10:00,
2013-01-10 10:15:00,33.5,24.1,30.40,NNW,341,2.0,19.0,68,0.00,,---,0.00,VWS V14.00,2013-01-10 15:15:00,
2013-01-10 10:20:00,33.5,24.1,30.40,NW,304,3.0,12.0,68,0.00,,---,0.00,VWS V14.00,2013-01-10 15:20:00,
2013-01-10 10:25:00,33.5,24.1,30.40,NNW,348,7.0,18.0,68,0.00,,---,0.00,VWS V14.00,2013-01-10 15:25:00,
2013-01-10 10:30:00,33.5,24.1,30.40,NW,309,10.0,20.0,68,0.00,,---,0.00,VWS V14.00,2013-01-10 15:30:00,
2013-01-10 10:35:00,33.5,24.1,30.40,NNW,340,10.0,20.0,68,0.00,,---,0.00,VWS V14.00,2013-01-10 15:35:00,
2013-01-10 10:40:00,33.5,24.1,30.40,WSW,254,0.0,20.0,68,0.00,,---,0.00,VWS V14.00,2013-01-10 15:40:00,
2013-01-10 10:45:00,33.6,24.2,30.40,WNW,289,5.0,20.0,68,0.00,,---,0.00,VWS V14.00,2013-01-10 15:45:00,
2013-01-10 10:50:00,33.6,24.2,30.40,NW,306,8.0,8.0,68,0.00,,---,0.00,VWS V14.00,2013-01-10 15:50:00,
2013-01-10 10:55:00,33.6,24.2,30.41,NNW,337,6.0,12.0,68,0.00,,---,0.00,VWS V14.00,2013-01-10 15:55:00,
2013-01-10 11:00:00,33.7,24.3,30.41,WNW,286,6.0,12.0,68,0.00,,---,0.00,VWS V14.00,2013-01-10 16:00:00,
2013-01-10 11:05:00,33.8,24.0,30.41,WNW,302,7.0,12.0,67,0.00,,---,0.00,VWS V14.00,2013-01-10 16:05:00,
2013-01-10 11:10:00,33.7,23.9,30.41,WNW,288,8.0,15.0,67,0.00,,---,0.00,VWS V14.00,2013-01-10 16:10:00,
2013-01-10 11:15:00,33.7,23.9,30.42,NW,322,4.0,15.0,67,0.00,,---,0.00,VWS V14.00,2013-01-10 16:15:00,
2013-01-10 11:20:00,33.7,23.6,30.42,WNW,295,2.0,9.0,66,0.00,,---,0.00,VWS V14.00,2013-01-10 16:20:00,
2013-01-10 11:25:00,33.7,23.6,30.41,West,274,2.0,13.0,66,0.00,,---,0.00,VWS V14.00,2013-01-10 16:25:00,
2013-01-10 11:30:00,33.7,23.9,30.41,NW,313,1.0,13.0,67,0.00,,---,0.00,VWS V14.00,2013-01-10 16:30:00,
2013-01-10 11:35:00,33.8,23.7,30.41,NW,305,2.0,13.0,66,0.00,,---,0.00,VWS V14.00,2013-01-10 16:35:00,
2013-01-10 11:40:00,33.9,24.1,30.40,WNW,294,4.0,13.0,67,0.00,,---,0.00,VWS V14.00,2013-01-10 16:40:00,
2013-01-10 11:45:00,34.0,24.2,30.40,WNW,303,1.0,13.0,67,0.00,,---,0.00,VWS V14.00,2013-01-10 16:45:00,
2013-01-10 11:50:00,34.3,24.5,30.40,NW,306,9.0,11.0,67,0.00,,---,0.00,VWS V14.00,2013-01-10 16:50:00,
2013-01-10 11:55:00,34.4,24.6,30.40,WNW,296,12.0,12.0,67,0.00,,---,0.00,VWS V14.00,2013-01-10 16:55:00,
2013-01-10 12:00:00,34.8,25.0,30.40,NW,304,12.0,15.0,67,0.00,,---,0.00,VWS V14.00,2013-01-10 17:00:00,
2013-01-10 12:05:00,35.0,24.4,30.40,West,277,8.0,16.0,65,0.00,,---,0.00,VWS V14.00,2013-01-10 17:05:00,
2013-01-10 12:10:00,35.6,24.6,30.40,NNW,345,4.0,20.0,64,0.00,,---,0.00,VWS V14.00,2013-01-10 17:10:00,
2013-01-10 12:15:00,35.8,24.8,30.40,NW,317,11.0,20.0,64,0.00,,---,0.00,VWS V14.00,2013-01-10 17:15:00,
2013-01-10 12:20:00,35.7,24.7,30.40,NNW,336,7.0,16.0,64,0.00,,---,0.00,VWS V14.00,2013-01-10 17:20:00,
2013-01-10 12:25:00,35.2,24.3,30.40,NW,323,8.0,22.0,64,0.00,,---,0.00,VWS V14.00,2013-01-10 17:25:00,
2013-01-10 12:30:00,35.2,24.3,30.40,NW,323,9.0,22.0,64,0.00,,---,0.00,VWS V14.00,2013-01-10 17:30:00,
2013-01-10 12:35:00,34.9,24.0,30.40,NW,310,14.0,22.0,64,0.00,,---,0.00,VWS V14.00,2013-01-10 17:35:00,
2013-01-10 12:40:00,35.0,24.1,30.40,NW,319,9.0,22.0,64,0.00,,---,0.00,VWS V14.00,2013-01-10 17:40:00,
2013-01-10 12:45:00,35.3,24.4,30.40,West,277,11.0,22.0,64,0.00,,---,0.00,VWS V14.00,2013-01-10 17:45:00,
2013-01-10 12:50:00,35.4,24.1,30.40,WNW,288,12.0,15.0,63,0.00,,---,0.00,VWS V14.00,2013-01-10 17:50:00,
2013-01-10 12:55:00,35.3,24.0,30.40,NW,311,5.0,18.0,63,0.00,,---,0.00,VWS V14.00,2013-01-10 17:55:00,
2013-01-10 13:00:00,35.4,24.1,30.40,NW,316,9.0,18.0,63,0.00,,---,0.00,VWS V14.00,2013-01-10 18:00:00,
2013-01-10 13:05:00,35.7,24.4,30.40,WNW,302,6.0,18.0,63,0.00,,---,0.00,VWS V14.00,2013-01-10 18:05:00,
2013-01-10 13:10:00,36.0,24.6,30.41,NW,315,3.0,18.0,63,0.00,,---,0.00,VWS V14.00,2013-01-10 18:10:00,
2013-01-10 13:15:00,36.1,24.4,30.41,West,273,7.0,18.0,62,0.00,,---,0.00,VWS V14.00,2013-01-10 18:15:00,
2013-01-10 13:20:00,35.7,24.0,30.41,WNW,292,8.0,12.0,62,0.00,,---,0.00,VWS V14.00,2013-01-10 18:20:00,
2013-01-10 13:25:00,35.4,24.1,30.41,WNW,284,5.0,15.0,63,0.00,,---,0.00,VWS V14.00,2013-01-10 18:25:00,
2013-01-10 13:30:00,35.2,23.9,30.41,WNW,288,5.0,15.0,63,0.00,,---,0.00,VWS V14.00,2013-01-10 18:30:00,
2013-01-10 13:35:00,35.5,24.2,30.42,NNW,330,6.0,17.0,63,0.00,,---,0.00,VWS V14.00,2013-01-10 18:35:00,
2013-01-10 13:40:00,35.6,24.3,30.42,NW,323,8.0,17.0,63,0.00,,---,0.00,VWS V14.00,2013-01-10 18:40:00,
2013-01-10 13:46:00,35.7,24.4,30.42,NNW,329,6.0,17.0,63,0.00,,---,0.00,VWS V14.00,2013-01-10 18:46:00,
2013-01-10 13:51:00,35.7,24.4,30.41,NNE,19,5.0,11.0,63,0.00,,---,0.00,VWS V14.00,2013-01-10 18:51:00,
2013-01-10 13:56:00,36.1,24.7,30.42,WNW,297,6.0,11.0,63,0.00,,---,0.00,VWS V14.00,2013-01-10 18:56:00,
2013-01-10 14:00:00,41.1,29.1,29.95,South,182,1.0,12.0,62,0.00,,---,0.00,VWS V14.00,2013-01-10 19:00:00,
2013-01-10 14:01:00,36.4,24.6,30.42,NW,320,2.0,13.0,62,0.00,,---,0.00,VWS V14.00,2013-01-10 19:01:00,
2013-01-10 14:06:00,36.4,24.6,30.42,WNW,292,10.0,13.0,62,0.00,,---,0.00,VWS V14.00,2013-01-10 19:06:00,
2013-01-10 14:11:00,36.2,24.5,30.43,SW,236,2.0,13.0,62,0.00,,---,0.00,VWS V14.00,2013-01-10 19:11:00,
2013-01-10 14:16:00,36.1,24.4,30.43,NW,318,5.0,8.0,62,0.00,,---,0.00,VWS V14.00,2013-01-10 19:16:00,
2013-01-10 14:21:00,36.2,24.5,30.43,NNW,329,9.0,15.0,62,0.00,,---,0.00,VWS V14.00,2013-01-10 19:21:00,
2013-01-10 14:26:00,36.1,24.4,30.43,NNW,341,10.0,15.0,62,0.00,,---,0.00,VWS V14.00,2013-01-10 19:26:00,
2013-01-10 14:30:00,39.1,28.0,29.96,SSW,202,2.0,14.0,64,0.00,,---,0.00,VWS V14.00,2013-01-10 19:30:00,
2013-01-10 14:31:00,36.1,24.7,30.43,NNE,26,7.0,15.0,63,0.00,,---,0.00,VWS V14.00,2013-01-10 19:31:00,
2013-01-10 14:36:00,36.1,24.4,30.43,WNW,296,4.0,15.0,62,0.00,,---,0.00,VWS V14.00,2013-01-10 19:36:00,
2013-01-10 14:41:00,36.1,24.4,30.43,West,277,10.0,16.0,62,0.00,,---,0.00,VWS V14.00,2013-01-10 19:41:00,
2013-01-10 14:46:00,36.1,24.4,30.44,WNW,294,9.0,9.0,62,0.00,,---,0.00,VWS V14.00,2013-01-10 19:46:00,
2013-01-10 14:51:00,36.2,24.5,30.44,NW,324,7.0,14.0,62,0.00,,---,0.00,VWS V14.00,2013-01-10 19:51:00,
2013-01-10 14:56:00,36.1,24.7,30.44,West,265,5.0,14.0,63,0.00,,---,0.00,VWS V14.00,2013-01-10 19:56:00,
2013-01-10 15:00:00,36.6,28.1,29.95,SE,146,9.0,15.0,71,0.00,,---,0.00,VWS V14.00,2013-01-10 20:00:00,
2013-01-10 15:01:00,35.9,24.9,30.44,North,5,7.0,14.0,64,0.00,,---,0.00,VWS V14.00,2013-01-10 20:01:00,
2013-01-10 15:06:00,35.5,24.5,30.44,NNW,345,5.0,14.0,64,0.00,,---,0.00,VWS V14.00,2013-01-10 20:06:00,
2013-01-10 15:11:00,35.2,24.6,30.45,WNW,284,5.0,14.0,65,0.00,,---,0.00,VWS V14.00,2013-01-10 20:11:00,
2013-01-10 15:16:00,35.2,24.6,30.45,NNW,334,1.0,10.0,65,0.00,,---,0.00,VWS V14.00,2013-01-10 20:16:00,
2013-01-10 15:21:00,35.2,24.6,30.46,NNW,347,5.0,10.0,65,0.00,,---,0.00,VWS V14.00,2013-01-10 20:21:00,
2013-01-10 15:26:00,35.0,24.4,30.46,North,360,8.0,11.0,65,0.00,,---,0.00,VWS V14.00,2013-01-10 20:26:00,
2013-01-10 15:30:00,36.9,29.1,29.93,SSE,161,9.0,16.0,73,0.00,,---,0.00,VWS V14.00,2013-01-10 20:30:00,
2013-01-10 15:31:00,34.7,24.5,30.46,NW,326,5.0,11.0,66,0.00,,---,0.00,VWS V14.00,2013-01-10 20:31:00,
2013-01-10 15:36:00,34.5,24.3,30.46,West,279,9.0,11.0,66,0.00,,---,0.00,VWS V14.00,2013-01-10 20:36:00,
2013-01-10 15:41:00,34.4,24.2,30.46,NW,306,8.0,12.0,66,0.00,,---,0.00,VWS V14.00,2013-01-10 20:41:00,
2013-01-10 15:46:00,34.3,24.1,30.46,NNW,331,6.0,10.0,66,0.00,,---,0.00,VWS V14.00,2013-01-10 20:46:00,
2013-01-10 15:51:00,34.2,24.4,30.46,WNW,302,8.0,12.0,67,0.00,,---,0.00,VWS V14.00,2013-01-10 20:51:00,
2013-01-10 15:56:00,34.1,24.3,30.46,NW,306,3.0,12.0,67,0.00,,---,0.00,VWS V14.00,2013-01-10 20:56:00,
2013-01-10 16:00:00,37.4,29.9,29.94,South,179,3.0,19.0,74,0.00,,---,0.00,VWS V14.00,2013-01-10 21:00:00,
2013-01-10 16:01:00,34.0,24.2,30.46,WNW,292,2.0,12.0,67,0.00,,---,0.00,VWS V14.00,2013-01-10 21:01:00,
2013-01-10 16:06:00,33.8,24.0,30.47,North,5,3.0,12.0,67,0.00,,---,0.00,VWS V14.00,2013-01-10 21:06:00,
2013-01-10 16:11:00,33.6,24.2,30.47,WNW,302,2.0,12.0,68,0.00,,---,0.00,VWS V14.00,2013-01-10 21:11:00,
2013-01-10 16:16:00,33.3,23.9,30.47,NW,323,5.0,9.0,68,0.00,,---,0.00,VWS V14.00,2013-01-10 21:16:00,
2013-01-10 16:21:00,32.9,23.9,30.48,NNW,327,3.0,10.0,69,0.00,,---,0.00,VWS V14.00,2013-01-10 21:21:00,
2013-01-10 16:27:00,32.7,24.0,30.48,NW,323,0.0,10.0,70,0.00,,---,0.00,VWS V14.00,2013-01-10 21:27:00,
2013-01-10 16:30:00,37.4,30.2,29.95,SSW,196,7.0,15.0,75,0.00,,---,0.00,VWS V14.00,2013-01-10 21:30:00,
2013-01-10 16:32:00,32.4,23.7,30.48,NW,326,2.0,10.0,70,0.00,,---,0.00,VWS V14.00,2013-01-10 21:32:00,
2013-01-10 16:37:00,32.3,24.0,30.48,WNW,293,5.0,10.0,71,0.00,,---,0.00,VWS V14.00,2013-01-10 21:37:00,
2013-01-10 16:42:00,32.1,23.8,30.48,NNE,15,3.0,10.0,71,0.00,,---,0.00,VWS V14.00,2013-01-10 21:42:00,
2013-01-10 16:47:00,32.0,23.7,30.48,NW,323,1.0,1.0,71,0.00,,---,0.00,VWS V14.00,2013-01-10 21:47:00,
2013-01-10 16:52:00,31.8,23.5,30.48,WNW,294,7.0,8.0,71,0.00,,---,0.00,VWS V14.00,2013-01-10 21:52:00,
2013-01-10 16:57:00,31.7,23.7,30.48,WNW,292,2.0,8.0,72,0.00,,---,0.00,VWS V14.00,2013-01-10 21:57:00,
2013-01-10 17:00:00,37.3,30.4,29.96,SW,231,1.0,13.0,76,0.00,,---,0.00,VWS V14.00,2013-01-10 22:00:00,
2013-01-10 17:02:00,31.5,23.5,30.48,NW,320,1.0,8.0,72,0.00,,---,0.00,VWS V14.00,2013-01-10 22:02:00,
2013-01-10 17:07:00,31.3,23.7,30.48,NNW,329,3.0,8.0,73,0.00,,---,0.00,VWS V14.00,2013-01-10 22:07:00,
2013-01-10 17:12:00,31.1,23.5,30.48,NW,312,1.0,8.0,73,0.00,,---,0.00,VWS V14.00,2013-01-10 22:12:00,
2013-01-10 17:17:00,31.1,23.5,30.49,WNW,288,5.0,8.0,73,0.00,,---,0.00,VWS V14.00,2013-01-10 22:17:00,
2013-01-10 17:22:00,31.1,23.5,30.49,NNW,329,2.0,8.0,73,0.00,,---,0.00,VWS V14.00,2013-01-10 22:22:00,
2013-01-10 17:27:00,31.1,23.5,30.49,NW,311,3.0,8.0,73,0.00,,---,0.00,VWS V14.00,2013-01-10 22:27:00,
2013-01-10 17:30:00,37.3,30.4,29.97,SW,217,1.0,13.0,76,0.00,,---,0.00,VWS V14.00,2013-01-10 22:30:00,
2013-01-10 17:32:00,31.0,23.4,30.49,NW,317,0.0,8.0,73,0.00,,---,0.00,VWS V14.00,2013-01-10 22:32:00,
2013-01-10 17:37:00,30.8,23.2,30.49,NNW,333,4.0,8.0,73,0.00,,---,0.00,VWS V14.00,2013-01-10 22:37:00,
2013-01-10 17:42:00,30.7,23.1,30.49,North,355,2.0,8.0,73,0.00,,---,0.00,VWS V14.00,2013-01-10 22:42:00,
2013-01-10 17:47:00,30.6,23.3,30.50,NNW,333,1.0,3.0,74,0.00,,---,0.00,VWS V14.00,2013-01-10 22:47:00,
2013-01-10 17:52:00,30.6,23.3,30.50,NW,326,5.0,9.0,74,0.00,,---,0.00,VWS V14.00,2013-01-10 22:52:00,
2013-01-10 17:57:00,30.6,23.3,30.49,NW,311,3.0,9.0,74,0.00,,---,0.00,VWS V14.00,2013-01-10 22:57:00,
2013-01-10 18:00:00,37.4,29.9,29.98,South,190,4.0,13.0,74,0.00,,---,0.00,VWS V14.00,2013-01-10 23:00:00,
2013-01-10 18:02:00,30.7,23.1,30.49,NNW,348,1.0,9.0,73,0.00,,---,0.00,VWS V14.00,2013-01-10 23:02:00,
2013-01-10 18:07:00,30.6,23.0,30.49,WNW,292,3.0,9.0,73,0.00,,---,0.00,VWS V14.00,2013-01-10 23:07:00,
2013-01-10 18:12:00,30.5,23.2,30.49,WNW,294,4.0,9.0,74,0.00,,---,0.00,VWS V14.00,2013-01-10 23:12:00,
2013-01-10 18:17:00,30.5,23.2,30.49,NNE,15,3.0,5.0,74,0.00,,---,0.00,VWS V14.00,2013-01-10 23:17:00,
2013-01-10 18:22:00,30.4,23.1,30.49,WNW,298,3.0,5.0,74,0.00,,---,0.00,VWS V14.00,2013-01-10 23:22:00,
2013-01-10 18:27:00,30.4,23.1,30.50,NW,311,1.0,6.0,74,0.00,,---,0.00,VWS V14.00,2013-01-10 23:27:00,
2013-01-10 18:30:00,37.3,29.1,29.97,West,279,1.0,11.0,72,0.00,,---,0.00,VWS V14.00,2013-01-10 23:30:00,
2013-01-10 18:32:00,30.3,23.0,30.49,NW,305,2.0,6.0,74,0.00,,---,0.00,VWS V14.00,2013-01-10 23:32:00,
2013-01-10 18:37:00,30.2,22.9,30.49,NW,325,1.0,6.0,74,0.00,,---,0.00,VWS V14.00,2013-01-10 23:37:00,
2013-01-10 18:42:00,30.0,22.7,30.50,NNW,344,0.0,6.0,74,0.00,,---,0.00,VWS V14.00,2013-01-10 23:42:00,
2013-01-10 18:47:00,30.0,23.0,30.50,NW,305,4.0,4.0,75,0.00,,---,0.00,VWS V14.00,2013-01-10 23:47:00,
2013-01-10 18:52:00,29.9,23.0,30.50,WNW,294,3.0,5.0,75,0.00,,---,0.00,VWS V14.00,2013-01-10 23:52:00,
2013-01-10 18:57:00,29.9,23.0,30.50,WNW,294,3.0,5.0,75,0.00,,---,0.00,VWS V14.00,2013-01-10 23:57:00,
2013-01-10 19:00:00,37.3,28.4,29.97,SSW,209,5.0,13.0,70,0.00,,---,0.00,VWS V14.00,2013-01-11 00:00:00,
2013-01-10 19:02:00,29.9,23.0,30.50,WNW,294,1.0,5.0,75,0.00,,---,0.00,VWS V14.00,2013-01-11 00:02:00,
2013-01-10 19:07:00,29.7,23.1,30.50,WNW,298,1.0,5.0,76,0.00,,---,0.00,VWS V14.00,2013-01-11 00:07:00,
2013-01-10 19:12:00,29.6,23.0,30.50,WNW,298,2.0,5.0,76,0.00,,---,0.00,VWS V14.00,2013-01-11 00:12:00,
2013-01-10 19:17:00,29.4,22.8,30.50,WNW,298,0.0,0.0,76,0.00,,---,0.00,VWS V14.00,2013-01-11 00:17:00,
2013-01-10 19:22:00,29.3,22.7,30.51,WNW,298,0.0,2.0,76,0.00,,---,0.00,VWS V14.00,2013-01-11 00:22:00,
2013-01-10 19:28:00,29.1,22.5,30.51,WNW,298,0.0,2.0,76,0.00,,---,0.00,VWS V14.00,2013-01-11 00:28:00,
2013-01-10 19:30:00,37.9,26.4,29.97,WSW,258,0.0,11.0,63,0.00,,---,0.00,VWS V14.00,2013-01-11 00:30:00,
2013-01-10 19:33:00,28.9,22.6,30.51,WNW,298,0.0,2.0,77,0.00,,---,0.00,VWS V14.00,2013-01-11 00:33:00,
2013-01-10 19:38:00,28.7,22.1,30.50,WNW,298,0.0,2.0,76,0.00,,---,0.00,VWS V14.00,2013-01-11 00:38:00,
2013-01-10 19:43:00,28.3,22.0,30.50,WNW,298,0.0,2.0,77,0.00,,---,0.00,VWS V14.00,2013-01-11 00:43:00,
2013-01-10 19:48:00,28.1,22.1,30.50,WNW,298,0.0,0.0,78,0.00,,---,0.00,VWS V14.00,2013-01-11 00:48:00,
2013-01-10 19:53:00,28.0,22.0,30.51,WNW,298,0.0,1.0,78,0.00,,---,0.00,VWS V14.00,2013-01-11 00:53:00,
2013-01-10 19:58:00,27.6,21.6,30.51,WNW,298,0.0,1.0,78,0.00,,---,0.00,VWS V14.00,2013-01-11 00:58:00,
2013-01-10 20:00:00,38.0,26.1,29.98,West,263,1.0,12.0,62,0.00,,---,0.00,VWS V14.00,2013-01-11 01:00:00,
2013-01-10 20:03:00,27.4,21.5,30.51,WNW,298,0.0,1.0,78,0.00,,---,0.00,VWS V14.00,2013-01-11 01:03:00,
2013-01-10 20:08:00,27.3,21.7,30.51,WNW,298,0.0,2.0,79,0.00,,---,0.00,VWS V14.00,2013-01-11 01:08:00,
2013-01-10 20:13:00,27.2,21.6,30.51,WNW,298,0.0,2.0,79,0.00,,---,0.00,VWS V14.00,2013-01-11 01:13:00,
2013-01-10 20:18:00,27.0,21.7,30.51,WNW,298,0.0,0.0,80,0.00,,---,0.00,VWS V14.00,2013-01-11 01:18:00,
2013-01-10 20:23:00,26.9,21.6,30.51,WNW,298,0.0,0.0,80,0.00,,---,0.00,VWS V14.00,2013-01-11 01:23:00,
2013-01-10 20:28:00,26.8,21.8,30.50,WNW,298,0.0,1.0,81,0.00,,---,0.00,VWS V14.00,2013-01-11 01:28:00,
2013-01-10 20:30:00,37.8,27.8,29.99,WSW,244,3.0,20.0,67,0.00,,---,0.00,VWS V14.00,2013-01-11 01:30:00,
2013-01-10 20:33:00,26.7,21.7,30.51,WNW,298,0.0,1.0,81,0.00,,---,0.00,VWS V14.00,2013-01-11 01:33:00,
2013-01-10 20:38:00,26.7,21.7,30.51,WNW,298,1.0,1.0,81,0.00,,---,0.00,VWS V14.00,2013-01-11 01:38:00,
2013-01-10 20:43:00,26.5,21.5,30.51,WNW,298,2.0,2.0,81,0.00,,---,0.00,VWS V14.00,2013-01-11 01:43:00,
2013-01-10 20:48:00,26.3,21.6,30.51,WNW,298,1.0,1.0,82,0.00,,---,0.00,VWS V14.00,2013-01-11 01:48:00,
2013-01-10 20:53:00,26.2,21.8,30.51,WNW,298,0.0,2.0,83,0.00,,---,0.00,VWS V14.00,2013-01-11 01:53:00,
2013-01-10 20:58:00,26.0,21.3,30.51,WNW,298,0.0,2.0,82,0.00,,---,0.00,VWS V14.00,2013-01-11 01:58:00,
2013-01-10 21:00:00,37.7,28.5,29.99,West,277,1.0,21.0,69,0.00,,---,0.00,VWS V14.00,2013-01-11 02:00:00,
2013-01-10 21:03:00,25.8,21.1,30.51,WNW,298,0.0,2.0,82,0.00,,---,0.00,VWS V14.00,2013-01-11 02:03:00,
2013-01-10 21:08:00,25.6,21.2,30.51,WNW,298,0.0,2.0,83,0.00,,---,0.00,VWS V14.00,2013-01-11 02:08:00,
2013-01-10 21:13:00,25.5,21.1,30.51,WNW,298,0.0,2.0,83,0.00,,---,0.00,VWS V14.00,2013-01-11 02:13:00,
2013-01-10 21:18:00,25.3,20.9,30.52,WNW,298,0.0,0.0,83,0.00,,---,0.00,VWS V14.00,2013-01-11 02:18:00,
2013-01-10 21:23:00,25.2,20.8,30.51,WNW,298,0.0,0.0,83,0.00,,---,0.00,VWS V14.00,2013-01-11 02:23:00,
2013-01-10 21:28:00,25.0,20.6,30.52,WNW,298,0.0,1.0,83,0.00,,---,0.00,VWS V14.00,2013-01-11 02:28:00,
2013-01-10 21:30:00,36.6,30.1,30.00,WNW,296,6.0,14.0,77,0.00,,---,0.00,VWS V14.00,2013-01-11 02:30:00,
2013-01-10 21:33:00,24.8,20.7,30.52,WNW,298,0.0,1.0,84,0.00,,---,0.00,VWS V14.00,2013-01-11 02:33:00,
2013-01-10 21:38:00,24.5,20.1,30.52,WNW,298,0.0,1.0,83,0.00,,---,0.00,VWS V14.00,2013-01-11 02:38:00,
2013-01-10 21:43:00,24.3,20.2,30.52,WNW,300,0.0,3.0,84,0.00,,---,0.00,VWS V14.00,2013-01-11 02:43:00,
2013-01-10 21:48:00,24.2,20.1,30.51,WNW,300,0.0,0.0,84,0.00,,---,0.00,VWS V14.00,2013-01-11 02:48:00,
2013-01-10 21:54:00,24.1,20.0,30.52,WNW,300,0.0,0.0,84,0.00,,---,0.00,VWS V14.00,2013-01-11 02:54:00,
2013-01-10 21:59:00,24.0,19.9,30.51,WNW,300,0.0,0.0,84,0.00,,---,0.00,VWS V14.00,2013-01-11 02:59:00,
2013-01-10 22:00:00,35.0,30.7,30.01,WSW,257,2.0,14.0,84,0.00,,---,0.00,VWS V14.00,2013-01-11 03:00:00,
2013-01-10 22:04:00,23.9,20.1,30.51,WNW,300,0.0,0.0,85,0.00,,---,0.00,VWS V14.00,2013-01-11 03:04:00,
2013-01-10 22:09:00,23.8,20.0,30.50,WNW,300,0.0,1.0,85,0.00,,---,0.00,VWS V14.00,2013-01-11 03:09:00,
2013-01-10 22:14:00,23.4,19.6,30.51,WNW,300,0.0,1.0,85,0.00,,---,0.00,VWS V14.00,2013-01-11 03:14:00,
2013-01-10 22:19:00,23.2,19.4,30.51,WNW,300,0.0,2.0,85,0.00,,---,0.00,VWS V14.00,2013-01-11 03:19:00,
2013-01-10 22:24:00,23.0,19.2,30.51,WNW,300,0.0,2.0,85,0.00,,---,0.00,VWS V14.00,2013-01-11 03:24:00,
2013-01-10 22:29:00,23.0,19.5,30.51,WNW,300,0.0,2.0,86,0.00,,---,0.00,VWS V14.00,2013-01-11 03:29:00,
2013-01-10 22:30:00,34.8,29.9,30.06,NW,316,10.0,19.0,82,0.00,,---,0.00,VWS V14.00,2013-01-11 03:30:00,
2013-01-10 22:34:00,23.0,19.5,30.51,NW,315,1.0,3.0,86,0.00,,---,0.00,VWS V14.00,2013-01-11 03:34:00,
2013-01-10 22:39:00,23.1,19.5,30.51,NW,315,1.0,3.0,86,0.00,,---,0.00,VWS V14.00,2013-01-11 03:39:00,
2013-01-10 22:44:00,23.1,19.5,30.51,NW,315,0.0,3.0,86,0.00,,---,0.00,VWS V14.00,2013-01-11 03:44:00,
2013-01-10 22:49:00,23.1,19.5,30.52,NW,315,0.0,1.0,86,0.00,,---,0.00,VWS V14.00,2013-01-11 03:49:00,
2013-01-10 22:54:00,23.0,19.5,30.51,NW,315,0.0,1.0,86,0.00,,---,0.00,VWS V14.00,2013-01-11 03:54:00,
2013-01-10 22:59:00,23.0,19.5,30.51,NW,315,0.0,1.0,86,0.00,,---,0.00,VWS V14.00,2013-01-11 03:59:00,
2013-01-10 23:00:00,34.8,28.3,30.07,WSW,257,8.0,22.0,77,0.00,,---,0.00,VWS V14.00,2013-01-11 04:00:00,
2013-01-10 23:04:00,22.9,19.4,30.51,NW,315,0.0,2.0,86,0.00,,---,0.00,VWS V14.00,2013-01-11 04:04:00,
2013-01-10 23:09:00,22.8,19.5,30.51,NW,315,0.0,2.0,87,0.00,,---,0.00,VWS V14.00,2013-01-11 04:09:00,
2013-01-10 23:14:00,22.7,19.4,30.51,NW,315,1.0,2.0,87,0.00,,---,0.00,VWS V14.00,2013-01-11 04:14:00,
2013-01-10 23:19:00,22.7,19.4,30.51,NW,315,0.0,1.0,87,0.00,,---,0.00,VWS V14.00,2013-01-11 04:19:00,
2013-01-10 23:24:00,22.7,19.4,30.51,NW,315,0.0,1.0,87,0.00,,---,0.00,VWS V14.00,2013-01-11 04:24:00,
2013-01-10 23:29:00,22.7,19.4,30.51,NW,315,0.0,1.0,87,0.00,,---,0.00,VWS V14.00,2013-01-11 04:29:00,
2013-01-10 23:30:00,35.7,26.5,30.09,NNW,327,7.0,19.0,69,0.00,,---,0.00,VWS V14.00,2013-01-11 04:30:00,
2013-01-10 23:34:00,22.6,19.3,30.52,NW,315,0.0,1.0,87,0.00,,---,0.00,VWS V14.00,2013-01-11 04:34:00,
2013-01-10 23:39:00,22.5,19.2,30.52,NW,315,0.0,1.0,87,0.00,,---,0.00,VWS V14.00,2013-01-11 04:39:00,
2013-01-10 23:44:00,22.4,19.1,30.52,NW,315,0.0,1.0,87,0.00,,---,0.00,VWS V14.00,2013-01-11 04:44:00,
2013-01-10 23:49:00,22.2,18.9,30.52,NW,315,0.0,0.0,87,0.00,,---,0.00,VWS V14.00,2013-01-11 04:49:00,
2013-01-10 23:54:00,22.2,18.9,30.52,NW,315,0.0,0.0,87,0.00,,---,0.00,VWS V14.00,2013-01-11 04:54:00,
2013-01-10 23:59:00,22.0,18.7,30.52,NW,315,0.0,0.0,87,0.00,,---,0.00,VWS V14.00,2013-01-11 04:59:00,